Sigonella/Catani, Italy

6:29 AM CET on December 08, 2016 (GMT +0100)
Sigonella Mil

Weather History for LICZ - December, 2012

Change the Weather History Date:

Friday, December 7, 2012

  Actual Average Record
Temperature  
Mean Temperature 51 °F -  
Max Temperature 61 °F 62 °F 73 °F (2010)
Min Temperature 41 °F 43 °F 38 °F (2013)
Degree Days  
Heating Degree Days 14    
Growing Degree Days 1 (Base 50)    
Moisture  
Dew Point 40 °F    
Average Humidity 73    
Maximum Humidity 100    
Minimum Humidity 26    
Precipitation  
Precipitation 0.00 in 0.09 in - ()
Sea Level Pressure  
Sea Level Pressure 29.98 in    
Wind  
Wind Speed 8 mph ()    
Max Wind Speed 15 mph    
Max Gust Speed -    
Visibility 6.4 miles    
Events Rain    
Averages and records for this station are not official NWS values.
T = Trace of Precipitation, MM = Missing Value Source: Averaged Metar Reports

Daily Weather History Graph

Daily Weather History Graph

Search for Another Location

Airport or City:

Trip Planner

Search our weather history database for the weather conditions in past years. The results will help you decide how hot, cold, wet, or windy it might be!

Date:

Astronomy

Dec. 07, 2012 Rise Set
Actual Time 7:01 AM CET 4:42 PM CET
Civil Twilight 6:32 AM CET 5:11 PM CET
Nautical Twilight 5:59 AM CET 5:43 PM CET
Astronomical Twilight 5:28 AM CET 6:15 PM CET
Moon 12:09 AM CET (12/7) 12:23 PM CET (12/7)
Length of Visible Light 10h 38m
Length of Day
9h 40m
Last Quarter, 41% of the Moon is Illuminated
Dec 7
Last Quarter
Dec 13
New
Dec 20
First Quarter
Dec 28
Full
Jan 5
Last Quarter

Hourly Weather History & Observations

Time (CET) Temp. Windchill Dew Point Humidity Pressure Visibility Wind Dir Wind Speed Gust Speed Precip Events Conditions
12:55 AM 46.4 °F 41.5 °F 42.8 °F 87% 29.92 in 6.2 mi West 10.4 mph - N/A   Scattered Clouds
1:00 AM 47 °F - 42 °F 76% 29.95 in 6 mi West 10.4 mph - -   Scattered Clouds
1:55 AM 44.6 °F 40.2 °F 42.8 °F 93% 29.95 in 6.2 mi WNW 8.1 mph - N/A   Partly Cloudy
2:55 AM 44.6 °F 40.2 °F 42.8 °F 93% 29.95 in 6.2 mi WNW 8.1 mph - N/A   Partly Cloudy
3:55 AM 44.6 °F 39.7 °F 42.8 °F 93% 29.95 in 6.2 mi WNW 9.2 mph - N/A   Partly Cloudy
4:00 AM 45 °F - 42 °F 87% 29.97 in 6 mi WNW 9.2 mph - -   Scattered Clouds
4:55 AM 44.6 °F 39.7 °F 42.8 °F 93% 29.95 in 6.2 mi West 9.2 mph - N/A   Partly Cloudy
5:55 AM 42.8 °F 37.0 °F 39.2 °F 87% 30.01 in 6.2 mi WNW 10.4 mph - N/A   Partly Cloudy
6:55 AM 41.0 °F 34.7 °F 39.2 °F 93% 30.01 in 6.2 mi WNW 10.4 mph - N/A   Partly Cloudy
7:00 AM 41 °F - 39 °F 91% 30.03 in 6 mi WNW 10.4 mph - -   Scattered Clouds
7:55 AM 41.0 °F 37.1 °F 39.2 °F 93% 30.01 in 6.2 mi WNW 5.8 mph - N/A   Partly Cloudy
8:55 AM 50.0 °F - 42.8 °F 76% 30.01 in 6.2 mi West 3.5 mph - N/A   Scattered Clouds
9:55 AM 53.6 °F - 42.8 °F 67% 30.04 in 6.2 mi West 10.4 mph - N/A   Scattered Clouds
10:00 AM 54 °F - 42 °F 54% 30.04 in 11 mi West 10.4 mph - -   Partly Cloudy
10:55 AM 57.2 °F - 41.0 °F 55% 30.01 in 6.2 mi West 12.7 mph - N/A   Scattered Clouds
11:55 AM 59.0 °F - 39.2 °F 48% 30.01 in 6.2 mi WSW 11.5 mph - N/A   Scattered Clouds
12:55 PM 59.0 °F - 37.4 °F 45% 29.98 in 6.2 mi West 15.0 mph - N/A   Scattered Clouds
1:00 PM 59 °F - 37 °F 32% 29.99 in 11 mi West 15.0 mph - -   Partly Cloudy
1:55 PM 60.8 °F - 35.6 °F 39% 29.98 in 6.2 mi West 15.0 mph - N/A   Scattered Clouds
2:55 PM 60.8 °F - 32.0 °F 34% 29.95 in 6.2 mi West 10.4 mph - N/A   Partly Cloudy
3:55 PM 59.0 °F - 33.8 °F 39% 29.95 in 6.2 mi West 9.2 mph - N/A   Scattered Clouds
4:00 PM 59 °F - 33 °F 26% 29.96 in 6 mi West 9.2 mph - -   Scattered Clouds
4:55 PM 53.6 °F - 35.6 °F 51% 29.98 in 6.2 mi WSW 5.8 mph - N/A   Partly Cloudy
5:55 PM 50.0 °F - 39.2 °F 66% 29.98 in 6.2 mi West 4.6 mph - N/A   Partly Cloudy
6:55 PM 46.4 °F 45.2 °F 44.6 °F 93% 29.98 in 6.2 mi WSW 3.5 mph - N/A   Partly Cloudy
7:00 PM 47 °F - 44 °F 87% 29.99 in 6 mi WSW 3.5 mph - -   Scattered Clouds
7:55 PM 46.4 °F - 42.8 °F 87% 29.98 in 6.2 mi SW 2.3 mph - N/A   Partly Cloudy
8:55 PM 44.6 °F 42.2 °F 42.8 °F 93% 29.98 in 6.2 mi West 4.6 mph - N/A   Partly Cloudy
9:55 PM 44.6 °F 42.2 °F 42.8 °F 93% 29.98 in 6.2 mi NW 4.6 mph - N/A   Scattered Clouds
10:00 PM 45 °F - 42 °F 87% 29.99 in 6 mi NW 4.6 mph - -   Scattered Clouds
10:55 PM 46.4 °F 44.3 °F 41.0 °F 81% 29.95 in 6.2 mi NW 4.6 mph - N/A   Mostly Cloudy
11:55 PM 44.6 °F 43.1 °F 44.6 °F 100% 29.95 in 5.0 mi SSE 3.5 mph - N/A Rain Light Rain